FW0271 Weather Reports


time (UTC)temp
C
wind
direction
speed
KPH
gust
KPH
rain 1hr
cm
rain 24hr
cm
rain mn
cm
humidity
%
barometer
mb
20260906022824 25 337 0.0 0.0 0.00 0.05 0.05 95 1011.4
20260906022322 25 338 0.0 0.0 0.00 0.05 0.05 95 1011.5
20260906021819 25 337 0.0 0.0 0.00 0.05 0.05 95 1011.4
20260906021316 25 338 0.0 0.0 0.00 0.05 0.05 95 1011.4
20260906020822 25 337 0.0 0.0 0.00 0.05 0.05 95 1011.2
20260906020817 25 338 0.0 0.0 0.00 0.05 0.05 95 1011.4
20260906015812 25 338 0.0 0.0 0.00 0.05 0.05 95 1011.2
20260906015313 25 337 0.0 0.0 0.00 0.05 0.05 95 1011.1
20260906014815 25 338 0.0 0.0 0.00 0.05 0.05 95 1011.0
20260906014811 25 338 0.0 0.0 0.00 0.05 0.05 95 1010.9
20260906013808 26 337 0.0 0.0 0.00 0.05 0.05 94 1010.9
20260906013308 26 338 0.0 0.0 0.00 0.05 0.05 94 1010.9
20260906012807 26 338 0.0 0.0 0.00 0.05 0.05 94 1010.9
20260906012307 26 338 0.0 0.0 0.00 0.05 0.05 94 1010.8
20260906011804 26 338 0.0 0.0 0.00 0.05 0.05 94 1010.8
20260906011302 26 337 0.0 0.0 0.00 0.05 0.05 94 1010.7
20260906010803 26 337 0.0 0.0 0.00 0.05 0.05 94 1010.7
20260906010301 26 337 0.0 0.0 0.00 0.05 0.05 93 1010.6
20260906005800 26 338 0.0 0.0 0.00 0.05 0.05 92 1010.5
20260906005258 26 338 0.0 0.0 0.00 0.05 0.05 92 1010.4
20260906004756 26 337 0.0 0.0 0.00 0.05 0.05 92 1010.4
20260906004257 26 338 0.0 0.0 0.00 0.05 0.05 91 1010.4
20260906003753 26 338 0.0 0.0 0.00 0.05 0.05 91 1010.4
20260906003258 26 337 0.0 0.0 0.00 0.05 0.05 90 1010.4
20260906003253 26 337 0.0 0.0 0.00 0.05 0.05 90 1010.4
20260906002250 26 338 0.0 0.0 0.00 0.05 0.05 89 1010.4
20260906001751 26 338 0.0 0.0 0.00 0.05 0.05 89 1010.4
20260906001249 26 338 0.0 0.0 0.00 0.05 0.05 89 1010.4
20260906000746 27 337 0.0 0.0 0.00 0.05 0.05 88 1010.4
20260906000244 27 337 0.0 0.0 0.00 0.05 0.05 89 1010.4
20260905235745 27 338 0.0 0.0 0.00 0.05 0.05 88 1010.5
20260905235243 27 337 0.0 0.0 0.00 0.05 0.05 88 1010.4
20260905234742 27 338 0.0 0.0 0.03 0.05 0.05 89 1010.4
20260905234241 27 338 0.0 0.0 0.05 0.05 0.05 88 1010.4
20260905233741 27 338 0.0 0.0 0.05 0.05 0.05 88 1010.4
20260905233243 27 338 0.0 0.0 0.05 0.05 0.05 88 1010.4
20260905232742 27 337 0.0 0.0 0.05 0.05 0.05 87 1010.4
20260905232241 27 338 0.0 1.6 0.05 0.05 0.05 87 1010.4
20260905231741 27 338 0.0 1.6 0.05 0.05 0.05 85 1010.4
20260905231243 27 335 0.0 3.2 0.05 0.05 0.05 84 1010.4
20260905230741 27 335 0.0 3.2 0.05 0.05 0.05 81 1010.4
20260905230240 28 316 0.0 3.2 0.05 0.05 0.05 80 1010.5
20260905225736 28 205 0.0 3.2 0.05 0.05 0.05 80 1010.5
20260905225236 28 225 0.0 3.2 0.05 0.05 0.05 78 1010.5
20260905224736 30 222 1.6 6.4 0.03 0.03 0.03 74 1010.7
20260905224233 31 326 3.2 8.0 0.00 0.00 0.00 70 1011.0
20260905223740 33 30 3.2 8.0 0.00 0.00 0.00 65 1010.8
20260905223735 32 342 3.2 8.0 0.00 0.00 0.00 67 1011.0
20260905222733 33 349 1.6 6.4 0.00 0.00 0.00 59 1010.6
20260905222232 34 342 0.0 1.6 0.00 0.00 0.00 58 1010.5
20260905221733 35 252 1.6 4.8 0.00 0.00 0.00 56 1010.4
20260905221231 35 20 1.6 4.8 0.00 0.00 0.00 53 1010.6
20260905220730 36 31 1.6 8.0 0.00 0.00 0.00 52 1010.6
20260905220229 37 11 1.6 8.0 0.00 0.00 0.00 50 1010.6
20260905215726 38 18 1.6 4.8 0.00 0.00 0.00 53 1010.4
20260905215227 38 132 0.0 3.2 0.00 0.00 0.00 52 1010.3
20260905214725 38 143 1.6 4.8 0.00 0.00 0.00 53 1010.3
20260905214223 38 71 1.6 6.4 0.00 0.00 0.00 51 1010.1
20260905213720 38 299 1.6 6.4 0.00 0.00 0.00 51 1010.1
20260905213219 38 295 1.6 4.8 0.00 0.00 0.00 51 1010.1
20260905212718 38 351 1.6 6.4 0.00 0.00 0.00 51 1010.2
20260905212218 38 212 1.6 6.4 0.00 0.00 0.00 50 1010.2
20260905211718 38 150 0.0 3.2 0.00 0.00 0.00 49 1010.2
20260905211218 38 255 0.0 4.8 0.00 0.00 0.00 51 1010.3
20260905210716 38 235 0.0 4.8 0.00 0.00 0.00 52 1010.3
20260905210215 39 195 0.0 3.2 0.00 0.00 0.00 52 1010.4
20260905205718 38 90 0.0 8.0 0.00 0.00 0.00 49 1010.5
20260905205713 38 89 0.0 3.2 0.00 0.00 0.00 48 1010.5
20260905204710 38 204 1.6 8.0 0.00 0.00 0.00 53 1010.4
20260905204213 38 301 0.0 3.2 0.00 0.00 0.00 50 1010.4
20260905204208 38 145 0.0 1.6 0.00 0.00 0.00 55 1010.6
20260905203813 38 146 0.0 1.6 0.00 0.00 0.00 51 1010.6
20260905202705 38 143 0.0 3.2 0.00 0.00 0.00 49 1010.5
20260905202206 38 200 0.0 3.2 0.00 0.00 0.00 49 1010.6
20260905201706 38 163 0.0 1.6 0.00 0.00 0.00 50 1010.7
20260905201206 39 230 0.0 8.0 0.00 0.00 0.00 48 1010.7
20260905200706 39 231 1.6 8.0 0.00 0.00 0.00 50 1010.7
20260905200207 38 205 1.6 11.3 0.00 0.00 0.00 47 1010.8
20260905200203 38 243 1.6 11.3 0.00 0.00 0.00 46 1010.9
20260905195200 38 68 1.6 8.0 0.00 0.00 0.00 43 1010.9
20260905194657 39 129 1.6 8.0 0.00 0.00 0.00 44 1010.9
20260905194157 39 95 0.0 8.0 0.00 0.00 0.00 49 1010.9
20260905193657 39 124 0.0 1.6 0.00 0.00 0.00 53 1011.0
20260905193158 39 194 0.0 1.6 0.00 0.00 0.00 50 1011.0
20260905192659 38 136 0.0 4.8 0.00 0.00 0.00 51 1011.1
20260905192203 38 154 1.6 4.8 0.00 0.00 0.00 52 1011.3
20260905192159 38 165 1.6 4.8 0.00 0.00 0.00 49 1011.2
20260905191203 38 214 3.2 9.7 0.00 0.00 0.00 50 1011.4
20260905191157 38 163 1.6 8.0 0.00 0.00 0.00 50 1011.4
20260905190203 38 108 1.6 8.0 0.00 0.00 0.00 50 1011.4
20260905190159 38 231 1.6 9.7 0.00 0.00 0.00 50 1011.4
20260905185157 38 358 1.6 8.0 0.00 0.00 0.00 51 1011.5
20260905184659 38 95 1.6 6.4 0.00 0.00 0.00 48 1011.5
20260905184158 38 228 1.6 4.8 0.00 0.00 0.00 49 1011.7
20260905183658 38 114 1.6 3.2 0.00 0.00 0.00 50 1011.8
20260905183158 38 131 1.6 6.4 0.00 0.00 0.00 49 1011.9
20260905182658 38 72 1.6 6.4 0.00 0.00 0.00 51 1011.9
20260905182203 38 212 1.6 9.7 0.00 0.00 0.00 49 1012.0
20260905182158 38 262 1.6 9.7 0.00 0.00 0.00 50 1012.0
20260905181814 38 72 1.6 3.2 0.00 0.00 0.00 50 1012.1
20260905180659 38 257 1.6 3.2 0.00 0.00 0.00 50 1012.1
20260905180158 38 44 0.0 3.2 0.00 0.00 0.00 52 1012.2
20260905175658 38 176 0.0 3.2 0.00 0.00 0.00 53 1012.1
20260905175159 38 32 0.0 3.2 0.00 0.00 0.00 54 1012.2
20260905174657 38 159 0.0 3.2 0.00 0.00 0.00 54 1012.1
20260905174159 37 155 0.0 3.2 0.00 0.00 0.00 57 1012.1
20260905173702 37 295 1.6 4.8 0.00 0.00 0.00 59 1012.2
20260905173657 37 174 0.0 4.8 0.00 0.00 0.00 56 1012.2
20260905173156 37 34 0.0 4.8 0.00 0.00 0.00 54 1012.2
20260905172157 37 134 1.6 4.8 0.00 0.00 0.00 55 1012.2
20260905171657 37 172 0.0 3.2 0.00 0.00 0.00 57 1012.3
20260905171156 37 18 0.0 3.2 0.00 0.00 0.00 56 1012.3
20260905170657 36 236 1.6 4.8 0.00 0.00 0.00 58 1012.4
20260905170201 36 186 1.6 4.8 0.00 0.00 0.00 57 1012.6
20260905170157 36 143 1.6 4.8 0.00 0.00 0.00 57 1012.5
20260905165155 36 101 0.0 3.2 0.00 0.00 0.00 60 1012.6
20260905164657 36 197 0.0 3.2 0.00 0.00 0.00 58 1012.6
20260905164157 36 107 0.0 3.2 0.00 0.00 0.00 60 1012.8
20260905163701 35 39 0.0 3.2 0.00 0.00 0.00 60 1013.0
20260905163656 36 157 0.0 3.2 0.00 0.00 0.00 60 1012.9
20260905162656 35 20 0.0 3.2 0.00 0.00 0.00 60 1012.9
20260905162157 36 12 0.0 3.2 0.00 0.00 0.00 60 1012.9
20260905161656 35 145 0.0 3.2 0.00 0.00 0.00 65 1013.0
20260905161156 35 236 0.0 3.2 0.00 0.00 0.00 63 1013.0
20260905160701 35 107 0.0 1.6 0.00 0.00 0.00 64 1013.0
20260905160656 35 355 0.0 3.2 0.00 0.00 0.00 62 1013.0
20260905155655 34 107 0.0 3.2 0.00 0.00 0.00 63 1013.1
20260905155157 34 121 0.0 3.2 0.00 0.00 0.00 66 1013.1
20260905154656 34 219 0.0 1.6 0.00 0.00 0.00 66 1013.1
20260905154155 33 232 0.0 4.8 0.00 0.00 0.00 68 1013.1
20260905153655 33 248 0.0 4.8 0.00 0.00 0.00 69 1013.1
20260905153157 33 235 0.0 4.8 0.00 0.00 0.00 68 1013.1
20260905152657 33 49 0.0 4.8 0.00 0.00 0.00 69 1013.0
20260905152157 32 103 0.0 1.6 0.00 0.00 0.00 72 1013.0
20260905151656 32 69 0.0 3.2 0.00 0.00 0.00 68 1013.0
20260905151157 32 71 0.0 3.2 0.00 0.00 0.00 70 1013.1
20260905150655 32 12 0.0 3.2 0.00 0.00 0.00 70 1013.1
20260905150155 32 143 0.0 1.6 0.00 0.00 0.00 72 1013.0
20260905145656 31 276 0.0 3.2 0.00 0.00 0.00 73 1013.0
20260905145155 31 226 0.0 3.2 0.00 0.00 0.00 75 1012.9
20260905144656 30 108 0.0 4.8 0.00 0.00 0.00 76 1013.0
20260905144156 30 165 0.0 4.8 0.00 0.00 0.00 77 1012.9
20260905143656 30 110 0.0 3.2 0.00 0.00 0.00 79 1012.9
20260905143155 29 278 0.0 1.6 0.00 0.00 0.00 80 1013.0
20260905142700 28 95 0.0 1.6 0.00 0.00 0.00 83 1012.9
20260905142655 29 214 0.0 1.6 0.00 0.00 0.00 81 1012.9
20260905141656 28 95 0.0 1.6 0.00 0.00 0.00 85 1012.9
20260905141155 28 95 0.0 1.6 0.00 0.00 0.00 85 1013.0
20260905140656 28 95 0.0 1.6 0.00 0.00 0.00 87 1013.0
20260905140156 28 153 0.0 0.0 0.00 0.00 0.00 88 1013.0
20260905135656 27 154 0.0 0.0 0.00 0.00 0.00 89 1013.0
20260905135156 27 154 0.0 0.0 0.00 0.00 0.00 91 1013.0
20260905134656 27 154 0.0 0.0 0.00 0.00 0.00 92 1012.9
20260905134156 27 153 0.0 0.0 0.00 0.00 0.00 94 1012.9
20260905133656 26 154 0.0 0.0 0.00 0.00 0.00 95 1012.9
20260905133201 26 154 0.0 0.0 0.00 0.00 0.00 97 1012.9
20260905133157 26 154 0.0 0.0 0.00 0.00 0.00 96 1012.9
20260905132811 25 153 0.0 0.0 0.00 0.00 0.00 97 1012.8
20260905131656 25 153 0.0 0.0 0.00 0.00 0.00 98 1012.9
20260905131156 25 154 0.0 0.0 0.00 0.00 0.00 98 1012.9
20260905130656 25 153 0.0 0.0 0.00 0.00 0.00 98 1012.8
20260905130156 24 154 0.0 0.0 0.00 0.00 0.00 98 1012.8
20260905125656 24 153 0.0 0.0 0.00 0.00 0.00 98 1012.8
20260905125156 23 153 0.0 0.0 0.00 0.00 0.00 98 1012.8
20260905124655 23 154 0.0 0.0 0.00 0.00 0.00 98 1012.7
20260905124201 23 153 0.0 0.0 0.00 0.00 0.00 98 1012.7
20260905124157 23 154 0.0 0.0 0.00 0.00 0.00 98 1012.7
20260905123157 23 153 0.0 0.0 0.00 0.00 0.00 98 1012.6
20260905122701 23 153 0.0 0.0 0.00 0.00 0.00 98 1012.4
20260905122655 23 154 0.0 0.0 0.00 0.00 0.00 98 1012.5
20260905121659 22 154 0.0 0.0 0.00 0.00 0.00 98 1012.4
20260905121655 22 153 0.0 0.0 0.00 0.00 0.00 98 1012.4
20260905120654 22 153 0.0 0.0 0.00 0.00 0.00 98 1012.4
20260905120155 22 154 0.0 0.0 0.00 0.00 0.00 98 1012.4
20260905115654 22 153 0.0 0.0 0.00 0.00 0.00 98 1012.3
20260905115155 22 154 0.0 0.0 0.00 0.00 0.00 98 1012.2
20260905114659 22 154 0.0 0.0 0.00 0.00 0.00 98 1012.0
20260905114654 22 154 0.0 0.0 0.00 0.00 0.00 98 1012.2
20260905113659 22 153 0.0 0.0 0.00 0.00 0.00 97 1012.0
20260905113653 22 153 0.0 0.0 0.00 0.00 0.00 97 1012.0
20260905112653 22 153 0.0 0.0 0.00 0.00 0.00 97 1012.0
20260905112155 22 153 0.0 0.0 0.00 0.00 0.00 97 1011.9
20260905111658 22 154 0.0 0.0 0.00 0.00 0.00 97 1011.8
20260905111653 22 154 0.0 0.0 0.00 0.00 0.00 97 1011.9
20260905110654 22 154 0.0 0.0 0.00 0.00 0.00 97 1011.8
20260905110154 22 154 0.0 0.0 0.00 0.00 0.00 97 1011.8
20260905105654 22 154 0.0 0.0 0.00 0.00 0.00 97 1011.8
20260905105159 22 153 0.0 0.0 0.00 0.00 0.00 97 1011.8
20260905105154 22 153 0.0 0.0 0.00 0.00 0.00 97 1011.9
20260905104154 22 153 0.0 0.0 0.00 0.00 0.00 97 1011.8
20260905103659 23 153 0.0 0.0 0.00 0.00 0.00 96 1011.8
20260905103655 22 153 0.0 0.0 0.00 0.00 0.00 97 1011.9
20260905103155 22 154 0.0 0.0 0.00 0.00 0.00 97 1011.9
20260905102154 23 154 0.0 0.0 0.00 0.00 0.00 96 1011.8
20260905101700 23 154 0.0 0.0 0.00 0.00 0.00 96 1012.0
20260905101655 23 153 0.0 0.0 0.00 0.00 0.00 96 1011.9
20260905100654 23 154 0.0 0.0 0.00 0.00 0.00 96 1012.0
20260905100155 23 153 0.0 0.0 0.00 0.00 0.00 96 1012.0
20260905095659 23 153 0.0 0.0 0.00 0.00 0.00 96 1011.9
20260905095654 23 154 0.0 0.0 0.00 0.00 0.00 96 1012.0
20260905094654 23 153 0.0 0.0 0.00 0.00 0.00 96 1011.8
20260905094155 23 153 0.0 0.0 0.00 0.00 0.00 96 1011.9
20260905093659 23 153 0.0 0.0 0.00 0.00 0.00 96 1011.9
20260905093653 23 154 0.0 0.0 0.00 0.00 0.00 96 1011.9
20260905092654 23 154 0.0 0.0 0.00 0.00 0.00 95 1011.9
20260905092153 23 154 0.0 0.0 0.00 0.00 0.00 95 1011.9
20260905091655 23 153 0.0 0.0 0.00 0.00 0.00 95 1011.9
20260905091154 23 153 0.0 0.0 0.00 0.00 0.00 95 1011.9
20260905090659 23 153 0.0 0.0 0.00 0.00 0.00 95 1011.9
20260905090655 23 153 0.0 0.0 0.00 0.00 0.00 95 1011.9
20260905085653 23 153 0.0 0.0 0.00 0.00 0.00 95 1011.9
20260905085155 23 154 0.0 0.0 0.00 0.00 0.00 95 1011.9
20260905084653 23 154 0.0 0.0 0.00 0.00 0.00 95 1012.0
20260905084159 23 154 0.0 1.6 0.00 0.00 0.00 95 1012.0
20260905084155 23 154 0.0 1.6 0.00 0.00 0.00 95 1012.0
20260905083153 23 153 0.0 1.6 0.00 0.00 0.00 95 1012.1
20260905082659 23 153 0.0 0.0 0.00 0.00 0.00 96 1012.0
20260905082654 23 153 0.0 1.6 0.00 0.00 0.00 96 1012.0
20260905081654 23 154 0.0 0.0 0.00 0.00 0.00 96 1012.0
20260905081153 23 153 0.0 0.0 0.00 0.00 0.00 95 1012.0
20260905080654 23 153 0.0 0.0 0.00 0.00 0.00 96 1012.1
20260905080200 23 153 0.0 0.0 0.00 0.00 0.00 96 1012.3
20260905080155 23 153 0.0 0.0 0.00 0.00 0.00 96 1012.2
20260905075159 23 154 0.0 0.0 0.00 0.00 0.00 96 1012.2
20260905075155 23 154 0.0 0.0 0.00 0.00 0.00 96 1012.2
20260905074811 23 153 0.0 0.0 0.00 0.00 0.00 96 1012.2
20260905073654 23 153 0.0 0.0 0.00 0.00 0.00 96 1012.2
20260905073158 23 154 0.0 0.0 0.00 0.00 0.00 96 1012.2
20260905073154 23 153 0.0 0.0 0.00 0.00 0.00 96 1012.3
20260905072159 23 154 0.0 0.0 0.00 0.00 0.00 96 1012.3
20260905072155 23 153 0.0 0.0 0.00 0.00 0.00 96 1012.3
20260905071153 23 153 0.0 0.0 0.00 0.00 0.00 96 1012.3
20260905070653 23 154 0.0 0.0 0.00 0.00 0.00 96 1012.3
20260905070159 23 153 0.0 0.0 0.00 0.00 0.00 96 1012.3
20260905070153 23 154 0.0 0.0 0.00 0.00 0.00 96 1012.3
20260905065154 23 154 0.0 0.0 0.00 0.00 0.00 96 1012.3
20260905064653 23 154 0.0 0.0 0.00 0.00 0.00 96 1012.3
20260905064154 23 154 0.0 0.0 0.00 0.00 0.00 96 1012.4
20260905063658 23 153 0.0 0.0 0.00 0.00 0.00 96 1012.4
20260905063653 23 153 0.0 0.0 0.00 0.00 0.00 96 1012.4
20260905062654 23 154 0.0 0.0 0.00 0.00 0.00 96 1012.4
20260905062154 23 154 0.0 0.0 0.00 0.00 0.00 96 1012.4
20260905061654 23 153 0.0 0.0 0.00 0.00 0.00 96 1012.5
20260905061153 23 153 0.0 0.0 0.00 0.00 0.00 96 1012.5
20260905060654 23 153 0.0 0.0 0.00 0.00 0.00 96 1012.5
20260905060155 23 154 0.0 0.0 0.00 0.00 0.00 95 1012.5
20260905055653 23 154 0.0 0.0 0.00 0.00 0.00 95 1012.5
20260905055155 23 153 0.0 0.0 0.00 0.00 0.00 95 1012.6
20260905054653 23 154 0.0 0.0 0.00 0.00 0.00 95 1012.5
20260905054153 23 154 0.0 0.0 0.00 0.00 0.00 95 1012.6
20260905053659 24 154 0.0 0.0 0.00 0.00 0.00 95 1012.5
20260905053654 23 154 0.0 0.0 0.00 0.00 0.00 95 1012.5
20260905053310 24 154 0.0 0.0 0.00 0.00 0.00 95 1012.5
20260905052154 24 153 0.0 0.0 0.00 0.00 0.00 95 1012.5
20260905051659 24 153 0.0 0.0 0.00 0.00 0.00 95 1012.4
20260905051654 24 153 0.0 0.0 0.00 0.00 0.00 95 1012.5
20260905051310 24 153 0.0 0.0 0.00 0.00 0.00 95 1012.4
20260905050158 24 153 0.0 0.0 0.00 0.00 0.00 95 1012.4
20260905050154 24 153 0.0 0.0 0.00 0.00 0.00 95 1012.4
20260905045809 24 154 0.0 0.0 0.00 0.00 0.00 94 1012.4
20260905044700 24 154 0.0 0.0 0.00 0.00 0.00 94 1012.3
20260905044655 24 153 0.0 0.0 0.00 0.00 0.00 94 1012.3
20260905044311 24 153 0.0 0.0 0.00 0.00 0.00 94 1012.4
20260905043154 24 154 0.0 0.0 0.00 0.00 0.00 94 1012.3
20260905042654 24 153 0.0 0.0 0.00 0.00 0.00 94 1012.4
20260905042153 25 154 0.0 0.0 0.00 0.00 0.00 94 1012.3
20260905041655 25 153 0.0 0.0 0.00 0.00 0.00 94 1012.3
20260905041153 25 153 0.0 0.0 0.00 0.00 0.00 94 1012.3
20260905040655 25 154 0.0 0.0 0.00 0.00 0.00 94 1012.2
20260905040154 25 153 0.0 0.0 0.00 0.00 0.00 93 1012.2
20260905035654 25 153 0.0 0.0 0.00 0.00 0.00 93 1012.2
20260905035154 25 153 0.0 0.0 0.00 0.00 0.00 93 1012.2
20260905034653 25 153 0.0 0.0 0.00 0.00 0.00 93 1012.2
20260905034154 25 153 0.0 0.0 0.00 0.00 0.00 92 1012.2
20260905033655 25 153 0.0 0.0 0.00 0.00 0.00 92 1012.3
20260905033154 25 154 0.0 0.0 0.00 0.00 0.00 93 1012.2
20260905032659 25 153 0.0 0.0 0.00 0.00 0.00 92 1012.3
20260905032654 25 153 0.0 0.0 0.00 0.00 0.00 92 1012.3
20260905031659 25 153 0.0 0.0 0.00 0.00 0.00 91 1012.5
20260905031653 25 154 0.0 0.0 0.00 0.00 0.00 91 1012.4
20260905030654 25 153 0.0 0.0 0.00 0.00 0.00 91 1012.5
20260905030155 25 153 0.0 0.0 0.00 0.00 0.00 90 1012.5
20260905025654 25 153 0.0 0.0 0.00 0.00 0.00 90 1012.5
20260905025154 26 153 0.0 0.0 0.00 0.00 0.00 90 1012.4
20260905024655 26 154 0.0 0.0 0.00 0.00 0.00 90 1012.4
20260905024155 26 154 0.0 0.0 0.00 0.00 0.00 89 1012.4
20260905023655 26 153 0.0 0.0 0.00 0.00 0.00 89 1012.4
20260905023154 26 154 0.0 0.0 0.00 0.00 0.00 89 1012.4